Terug naar catalogus

BEIDOU 3M15

ActiefNavigatieMEO
NORAD 43647·PAYLOAD·🇨🇳 China

Gelanceerd Oct 15, 2018 vanaf Xichang Satellite Launch Center

Loading…

Volgende Passages (komende 24 uur)

TLE

VersSource: CelesTrak SupGP

Epoch: Sep 12, 2026, 00:00 UTC

1 43647C 18078A   26255.00000000  .00000000  00000+0  00000+0 0  2551
2 43647  54.0085 296.9343 0006118  30.9231 325.6845  1.86232593    11

Volg BEIDOU 3M15 in realtime met AllMySat

Download on the App Store